TimeCST,TemperatureF,Dew PointF,Humidity,Sea Level PressureIn,VisibilityMPH,Wind Direction,Wind SpeedMPH,Gust SpeedMPH,PrecipitationIn,Events,Conditions,WindDirDegrees,DateUTC
12:08 AM,33.8,33.8,100,30.07,1.5,NE,3.5,-,N/A,,Overcast,40,2013-01-01 06:08:00
12:53 AM,34.0,34.0,100,30.08,1.5,NNE,3.5,-,N/A,,Overcast,20,2013-01-01 06:53:00
1:53 AM,34.0,34.0,100,30.09,1.2,North,3.5,-,N/A,,Overcast,360,2013-01-01 07:53:00
2:39 AM,33.8,33.8,100,30.08,2.0,North,5.8,-,N/A,,Overcast,360,2013-01-01 08:39:00
2:53 AM,34.0,34.0,100,30.11,1.8,Calm,Calm,-,N/A,,Overcast,0,2013-01-01 08:53:00
3:14 AM,33.8,33.8,100,30.10,3.0,Calm,Calm,-,N/A,,Overcast,0,2013-01-01 09:14:00
3:53 AM,34.0,33.1,96,30.09,5.0,North,5.8,-,N/A,,Overcast,360,2013-01-01 09:53:00
4:16 AM,33.8,33.8,100,30.09,5.0,NNE,8.1,-,N/A,,Overcast,20,2013-01-01 10:16:00
4:53 AM,34.0,32.0,92,30.12,9.0,NNE,10.4,-,N/A,,Overcast,20,2013-01-01 10:53:00
5:53 AM,34.0,32.0,92,30.11,7.0,NNE,11.5,-,N/A,,Overcast,30,2013-01-01 11:53:00
6:53 AM,34.0,32.0,92,30.12,9.0,NNE,9.2,-,N/A,,Overcast,30,2013-01-01 12:53:00
8:53 AM,33.1,30.0,89,30.18,7.0,North,10.4,-,N/A,,Overcast,10,2013-01-01 14:53:00
9:18 AM,33.8,30.2,87,30.16,7.0,North,11.5,-,N/A,,Overcast,360,2013-01-01 15:18:00
9:53 AM,33.1,28.9,85,30.15,4.0,North,10.4,-,N/A,,Overcast,10,2013-01-01 15:53:00
10:40 AM,30.2,28.4,93,30.18,4.0,NNW,13.8,-,N/A,,Overcast,330,2013-01-01 16:40:00
10:53 AM,30.9,28.0,89,30.20,4.0,NNW,9.2,-,N/A,,Overcast,340,2013-01-01 16:53:00
11:41 AM,30.2,26.6,86,30.21,4.0,North,15.0,-,N/A,,Overcast,350,2013-01-01 17:41:00
11:53 AM,30.0,26.1,85,30.21,4.0,North,11.5,-,N/A,,Overcast,360,2013-01-01 17:53:00
12:29 PM,28.4,24.8,86,30.17,5.0,North,13.8,-,N/A,,Haze,10,2013-01-01 18:29:00
12:53 PM,28.0,23.0,81,30.17,6.0,North,13.8,-,N/A,,Haze,350,2013-01-01 18:53:00
1:00 PM,28.4,23.0,80,30.15,6.0,North,13.8,-,N/A,,Haze,350,2013-01-01 19:00:00
1:25 PM,28.4,23.0,80,30.16,5.0,North,9.2,-,N/A,,Haze,360,2013-01-01 19:25:00
1:33 PM,28.4,23.0,80,30.15,5.0,North,11.5,-,N/A,,Haze,10,2013-01-01 19:33:00
1:53 PM,28.0,23.0,81,30.17,6.0,North,8.1,-,N/A,,Haze,360,2013-01-01 19:53:00
2:53 PM,28.0,21.0,75,30.17,6.0,North,17.3,-,N/A,,Haze,360,2013-01-01 20:53:00
3:53 PM,28.0,21.0,75,30.18,5.0,North,15.0,-,N/A,,Haze,350,2013-01-01 21:53:00
4:53 PM,27.0,21.0,78,30.20,7.0,North,11.5,-,N/A,,Overcast,350,2013-01-01 22:53:00
5:53 PM,27.0,19.9,75,30.23,8.0,North,13.8,-,N/A,,Overcast,360,2013-01-01 23:53:00
6:53 PM,27.0,19.9,75,30.23,8.0,North,11.5,-,N/A,,Mostly Cloudy,350,2013-01-02 00:53:00
7:53 PM,26.1,19.0,75,30.25,8.0,North,8.1,-,N/A,,Clear,10,2013-01-02 01:53:00
8:53 PM,25.0,19.0,78,30.24,8.0,North,9.2,-,N/A,,Clear,350,2013-01-02 02:53:00
9:53 PM,25.0,18.0,75,30.26,9.0,North,8.1,-,N/A,,Clear,350,2013-01-02 03:53:00
10:53 PM,25.0,18.0,75,30.27,9.0,North,8.1,-,N/A,,Clear,360,2013-01-02 04:53:00
11:53 PM,24.1,15.1,69,30.25,10.0,North,6.9,-,N/A,,Clear,10,2013-01-02 05:53:00